{"data":{"norad_id":56302,"intl_designator":"2023-056S","name":"STARLINK-30111","alt_names":[],"object_type":"PAYLOAD","status":"ACTIVE","operator":null,"country":"US","launch_date":"2023-04-19","launch_site_code":"AFETR","launch_vehicle":null,"mission":null,"orbit_class":"UNKNOWN","rcs_meters":null,"size_class":null,"mass_kg":null,"dimensions":null,"purposes":["comms"],"wikipedia_slug":null,"has_3d_model":false,"image_url":null,"decayed_at":null,"tle_current":{"epoch":"2026-05-24T23:59:38.990112Z","epoch_age_seconds":81958,"freshness":"FRESH","line1":"1 56302U 23056S   26144.99975683  .00010448  00000+0  38867-3 0  9996","line2":"2 56302  42.9997 137.6266 0000316 207.2929 152.7906 15.27579814171772","mean_motion":15.27579814,"eccentricity":3.16e-5,"inclination_deg":42.9997,"raan_deg":137.6266,"arg_perigee_deg":207.2929,"mean_anomaly_deg":152.7906,"bstar":0.00038867,"rev_number":17177,"period_min":94.266760191687,"perigee_km":482.83283949239,"apogee_km":483.26646648886,"semimajor_km":6861.1866529906,"source":"CELESTRAK","updated_at":"2026-05-25T13:38:17.993836Z"}}}